Helicity
188 120 106 117 210 197 183 226 218 135 116 36 7 39 50 61 60 71 82 91 89 79 87 93 89 101 85 77 57 -2 61 76 99 69 64 59 34 12 25 -16 44 135 156
89 87 124 199 265 173 215 264 291 144 89 78 115 103 84 86 77 70 56 92 103 91 79 59 30 10 19 36 57 64 62 31 44 81 49 49 78 71 27 43 25 45 60
122 162 196 235 224 167 247 261 289 186 141 188 176 120 101 95 81 106 122 113 96 73 47 31 29 32 35 50 69 57 62 85 77 45 -7 -8 1 18 31 0 43 36 18
145 179 158 154 170 238 441 395 243 152 159 197 169 145 145 121 154 158 167 151 113 83 53 55 45 41 52 70 75 77 57 73 69 37 4 -14 -49 -41 -24 -43 -29 0 51
118 144 193 212 262 282 293 360 225 60 167 187 172 148 143 189 189 199 175 137 95 73 60 37 21 31 58 86 122 120 114 89 40 43 5 -16 -30 -50 -23 -20 -17 27 87
132 119 123 163 161 136 118 176 68 154 175 189 165 145 195 192 196 174 156 136 114 96 89 62 43 54 83 124 127 152 154 102 45 36 12 -5 4 12 15 -5 -43 -26 -8
107 125 81 50 21 42 77 55 188 150 150 130 187 176 166 154 169 156 173 178 132 117 97 76 73 72 77 78 70 59 61 89 75 24 -11 -10 9 36 40 38 38 -4 -16
139 109 54 62 33 75 106 113 105 124 146 194 161 166 157 120 102 128 162 154 140 105 92 64 63 64 68 63 59 51 29 30 40 5 -17 -5 1 16 24 42 60 65 38
182 153 104 81 96 148 138 49 133 149 196 163 158 135 84 42 90 192 155 137 136 107 74 56 45 38 27 59 72 44 18 27 34 17 18 32 33 30 32 47 58 40 31
229 179 130 77 91 95 55 42 129 177 171 171 129 77 47 93 186 174 172 179 131 90 68 59 31 34 39 15 -7 -29 -19 -15 -20 -22 -13 -8 -4 -10 4 29 52 39 73
216 149 104 97 120 111 95 136 120 153 170 126 100 64 77 133 135 179 176 135 88 89 88 81 54 1 12 -24 -15 -39 -32 -27 -25 -30 -19 -8 2 12 24 34 47 77 67
164 113 126 110 112 120 115 114 130 123 103 90 66 23 54 96 116 129 106 70 60 91 90 78 81 14 0 -3 -5 7 -13 -11 -13 16 27 43 47 45 42 48 34 42 71
99 132 125 106 118 114 115 90 81 75 74 60 46 52 68 82 96 68 67 40 39 74 79 41 10 -8 16 54 32 2 2 14 17 16 20 23 20 29 34 30 17 16 24
130 117 99 107 100 76 62 62 74 68 64 57 60 73 80 86 95 85 70 67 49 59 43 36 19 40 66 31 1 10 13 5 -1 4 26 47 49 37 31 23 13 12 -12
145 95 97 92 80 67 78 84 58 45 53 63 73 90 100 76 85 52 5 9 42 52 34 33 6 7 7 9 1 16 35 18 21 35 36 36 38 34 45 60 70 11 -23
145 93 81 84 73 83 97 92 68 56 63 80 88 107 78 70 32 76 27 -10 23 23 -2 -33 -38 -9 9 26 20 45 55 7 27 60 55 40 38 63 73 52 29 22 2
126 88 76 71 72 81 71 49 23 57 57 50 82 74 77 59 50 94 45 0 1 7 -24 -33 -37 -19 7 12 13 32 62 9 13 39 52 75 82 71 48 15 20 17 24
112 84 100 108 84 70 66 60 65 64 62 58 49 100 109 63 59 78 69 16 -45 -22 -29 -29 -18 -15 -4 -1 -7 0 19 2 6 20 63 104 122 65 32 27 33 29 47
85 91 144 132 72 61 68 67 67 62 64 70 75 117 106 81 62 61 75 59 -24 -54 -44 -25 -13 -9 -2 -6 -12 -11 -6 -7 -3 11 44 87 128 94 65 36 30 39 26
66 88 119 105 74 68 72 77 64 62 66 67 79 99 104 103 69 49 59 70 40 -42 -51 -40 -20 -5 -2 4 1 -7 -10 -3 6 15 39 62 87 96 88 41 27 27 18
90 115 105 99 88 82 85 76 66 55 71 78 81 109 118 120 90 80 65 68 68 35 -33 -41 -32 -20 -19 -2 10 11 -1 0 16 24 38 58 63 86 72 65 36 8 7
113 100 106 94 88 81 83 93 65 60 71 88 90 104 116 128 114 111 95 70 70 72 61 1 -30 -27 -20 -10 2 7 17 14 19 29 37 50 58 78 44 45 37 30 23
111 86 84 87 76 69 83 76 63 71 70 81 96 97 114 119 120 130 124 87 87 79 69 74 11 -17 -21 -21 -13 -6 15 31 26 21 27 37 44 47 31 29 39 37 29
103 88 83 87 76 73 97 82 72 69 74 80 90 110 106 112 113 111 123 109 111 95 88 92 56 15 -7 -18 -14 -8 -11 -4 12 23 27 26 33 30 28 31 54 52 29
111 107 97 99 85 75 75 82 75 90 85 79 76 91 99 111 113 109 110 129 129 127 94 88 74 43 19 -6 11 -2 3 10 9 17 24 32 38 35 39 32 38 33 38
121 132 143 144 105 80 83 79 77 93 81 80 81 77 83 90 102 105 113 138 146 139 125 97 83 51 28 36 22 13 15 15 16 24 23 26 28 31 37 42 41 30 47
Wind_Speed
74 75 73 73 64 61 61 63 66 70 72 71 74 78 80 78 76 73 69 68 68 69 67 68 71 74 75 70 67 64 66 67 81 84 72 69 68 69 65 56 56 61 61
71 74 73 70 63 59 63 66 65 64 60 65 72 78 77 75 73 71 68 61 67 71 71 74 76 78 81 82 80 78 75 72 74 85 73 74 74 71 69 67 61 56 55
74 74 74 71 63 66 68 68 57 56 63 69 70 73 73 73 70 64 66 70 72 73 77 80 83 84 84 81 80 80 77 73 71 75 80 73 73 71 73 69 69 70 62
75 73 76 74 67 58 62 63 57 58 67 66 66 68 68 67 60 62 65 70 75 78 80 80 82 83 83 82 83 81 78 73 75 79 79 77 75 74 70 66 68 62 65
83 86 84 73 64 60 66 65 55 59 61 58 65 64 65 58 59 63 67 73 78 83 80 80 84 84 84 77 71 70 70 73 76 79 84 81 78 76 72 66 69 69 66
92 98 85 71 67 68 67 51 51 56 60 61 64 66 60 55 58 63 69 75 80 77 79 82 80 77 72 75 71 64 65 70 76 77 78 79 74 71 70 74 75 75 73
99 91 84 77 79 72 61 46 54 60 58 61 64 60 61 58 61 70 69 69 69 69 73 76 75 70 71 69 70 67 64 64 66 67 74 75 74 70 71 73 71 72 76
88 88 84 79 79 69 55 49 52 52 54 54 58 62 65 67 70 68 68 65 63 62 60 60 58 64 68 71 72 71 68 67 70 73 75 75 75 75 71 69 67 69 73
83 84 83 76 73 66 64 46 48 47 45 53 59 66 69 67 67 70 69 63 59 57 50 48 44 47 62 63 62 66 67 67 66 69 69 63 64 68 70 69 71 75 79
81 79 77 71 63 55 44 33 40 46 47 55 62 66 66 70 72 73 67 66 62 56 51 46 40 29 44 55 62 62 65 64 64 65 67 68 70 72 73 70 66 70 63
75 74 70 64 57 47 46 48 49 45 50 58 63 66 68 71 72 68 68 65 56 52 50 48 41 16 21 19 53 55 54 56 57 60 62 63 62 61 61 60 58 54 56
74 72 67 65 58 54 56 55 46 49 55 60 64 67 67 68 70 67 71 63 54 47 41 31 16 15 39 31 33 37 40 41 43 44 46 48 50 51 52 53 56 46 20
74 66 64 63 58 58 57 51 48 50 57 61 64 66 66 65 67 67 63 57 45 44 31 13 10 7 8 13 29 29 28 30 33 36 38 39 42 44 45 45 45 47 46
63 60 61 58 59 57 53 49 48 52 56 60 60 62 61 64 64 66 64 49 37 43 19 13 8 4 3 5 19 22 23 26 29 32 34 35 34 34 35 36 38 39 36
56 57 55 56 59 57 50 44 47 49 50 55 53 54 57 61 60 68 76 69 55 53 15 12 3 10 17 20 21 20 22 24 25 25 27 28 29 29 30 31 32 34 34
51 50 52 52 56 54 46 45 47 49 48 45 43 45 47 47 52 62 73 69 64 64 50 35 29 22 20 23 21 20 18 19 21 23 25 26 28 28 29 30 30 31 33
41 43 44 46 49 48 46 50 56 51 50 48 38 40 43 50 58 60 67 68 63 59 56 46 43 38 28 27 26 25 26 24 24 24 26 27 28 29 30 33 33 34 34
39 37 35 40 44 44 45 46 46 51 51 53 48 39 41 53 61 58 58 65 63 58 55 51 48 47 44 37 36 35 35 35 33 30 29 29 30 31 33 35 36 36 36
36 37 30 34 38 40 40 40 44 46 45 47 51 45 41 51 58 56 53 57 63 60 56 53 50 49 49 49 46 43 41 40 39 37 36 34 34 34 35 37 38 38 39
36 38 30 32 34 41 37 37 43 41 42 45 48 44 42 47 51 54 52 50 56 59 56 54 52 52 51 49 47 46 45 45 42 40 39 39 38 38 39 40 40 40 41
33 34 33 33 34 36 31 33 37 40 38 40 43 40 39 43 44 44 52 50 47 53 56 55 53 52 51 50 48 47 46 46 45 44 42 43 42 42 42 42 42 42 42
31 35 35 37 32 28 24 26 33 33 35 36 38 40 36 36 37 35 43 49 44 43 46 53 55 53 51 51 50 50 49 49 49 47 46 46 46 46 46 45 45 44 45
31 33 31 31 27 24 23 21 29 30 33 37 36 37 38 37 36 34 35 44 43 42 42 43 53 54 51 51 49 50 50 51 51 50 49 49 48 48 47 46 46 45 45
25 29 27 28 26 24 23 20 22 26 31 34 35 33 37 36 35 33 33 38 41 40 39 39 45 51 53 53 51 49 51 51 51 51 50 49 49 49 47 46 46 45 45
16 18 21 26 29 25 23 21 20 23 29 34 35 36 34 33 31 32 35 37 39 40 40 37 40 44 48 53 49 50 52 52 51 51 49 49 49 48 48 46 46 45 45
12 15 19 27 31 26 23 23 23 23 29 31 30 32 33 31 28 29 34 37 37 38 38 41 36 40 45 48 47 51 52 52 52 50 49 48 48 48 47 47 46 46 46
Wind_Direction
339 339 338 337 337 338 337 336 335 335 336 337 338 336 335 334 333 332 332 332 331 330 330 328 325 321 316 312 310 308 306 307 298 294 300 302 301 295 296 297 287 272 278
339 338 337 337 334 333 334 333 334 336 340 342 342 339 339 337 337 336 337 341 336 332 331 327 324 321 315 311 307 303 302 301 298 291 298 297 297 294 291 289 287 285 285
339 339 338 337 335 329 332 336 337 340 339 341 343 342 341 339 339 340 337 335 333 332 329 325 322 319 315 311 307 303 299 299 298 295 291 295 292 293 290 288 285 280 280
341 339 337 334 329 331 340 340 337 341 339 341 345 346 344 342 344 342 340 337 334 331 330 326 322 318 314 310 306 301 297 295 293 291 289 291 290 288 291 290 285 287 279
344 340 337 336 341 337 335 337 333 333 340 343 345 347 345 348 346 343 341 338 335 332 330 327 322 317 312 311 311 309 303 294 291 287 282 285 286 283 283 286 283 283 282
344 341 341 341 340 337 334 330 331 338 344 342 345 345 349 351 349 345 341 338 336 335 334 331 328 323 319 313 310 311 307 297 288 285 281 280 283 282 284 281 279 277 276
344 347 346 344 341 338 336 334 339 339 343 343 346 352 352 351 349 344 342 342 342 341 338 336 333 329 322 317 311 307 305 302 294 287 278 278 279 279 281 280 279 276 273
346 346 346 345 344 343 344 338 342 346 347 351 353 353 352 349 347 348 348 348 347 346 346 345 343 335 326 317 310 303 299 295 289 280 276 277 276 276 278 279 281 280 278
346 347 347 348 347 347 345 347 349 352 360 356 355 354 352 353 354 353 352 353 353 353 356 355 352 348 337 325 319 302 292 288 285 274 273 279 280 277 275 277 275 274 273
346 348 349 349 351 352 356 349 1 2 3 360 358 358 358 357 358 356 358 357 358 359 359 359 1 3 359 341 301 284 279 271 272 269 268 271 272 271 271 276 281 277 283
346 348 349 351 354 359 3 1 358 3 1 0 0 1 1 360 0 1 1 1 4 4 4 6 8 342 275 260 275 270 260 262 259 262 264 264 265 268 273 278 282 284 284
347 348 350 351 352 353 350 353 1 0 360 0 360 360 4 4 4 3 359 3 11 13 15 18 14 297 291 273 265 259 262 254 250 252 255 258 263 271 273 275 275 293 305
346 350 350 351 353 350 352 357 359 1 359 360 1 2 5 8 9 7 8 12 21 22 29 13 24 344 284 263 299 286 260 256 249 260 272 275 270 270 266 259 253 239 220
350 353 352 353 350 351 356 358 1 1 2 2 5 5 8 9 13 12 9 20 28 30 39 54 49 38 306 261 286 281 275 277 275 273 266 260 256 258 259 262 256 248 227
352 353 354 352 349 349 358 4 5 7 8 6 9 11 11 11 16 11 351 352 12 23 52 70 2 303 298 301 303 294 286 279 270 257 254 256 256 258 257 262 271 270 252
350 355 354 355 351 354 0 1 5 7 9 13 17 18 19 19 18 15 359 339 350 352 350 305 302 300 298 299 298 295 290 287 274 267 258 259 262 259 264 278 288 291 308
352 355 356 358 357 356 356 356 354 4 8 12 19 21 21 17 15 17 6 348 347 350 339 319 315 312 302 300 297 296 301 299 292 286 280 275 271 276 285 303 302 306 316
352 354 358 360 359 358 356 357 2 1 4 8 16 22 24 14 11 17 18 0 347 347 338 326 323 322 319 311 308 307 307 311 312 306 301 295 290 290 299 307 310 314 319
355 355 359 1 2 2 1 3 3 4 9 11 12 21 23 16 11 15 22 17 355 343 337 331 325 325 327 329 323 318 317 317 316 316 315 310 305 301 305 311 314 317 320
357 359 8 6 5 1 1 4 3 7 10 11 12 16 20 19 16 12 17 22 11 348 339 334 330 331 331 326 325 325 325 325 321 317 316 316 315 311 311 314 321 324 326
3 5 4 2 0 2 6 6 7 7 10 12 13 18 21 18 18 17 8 13 19 9 344 338 333 329 329 326 321 321 324 326 326 322 319 316 316 316 319 323 325 330 332
3 358 358 357 2 7 12 14 9 10 12 12 14 17 20 21 20 22 14 6 15 18 12 348 335 331 328 324 321 320 320 320 323 322 319 318 317 315 320 324 326 327 328
359 360 3 5 9 11 12 13 11 12 12 11 13 15 18 19 21 22 20 10 10 13 13 9 347 332 330 325 323 324 322 321 321 322 319 318 319 318 321 324 324 327 329
4 5 9 8 8 8 7 10 12 13 10 10 12 14 15 19 20 23 22 14 11 12 12 9 1 346 330 325 322 324 323 322 322 322 321 321 320 322 323 323 323 327 330
6 9 10 6 0 2 3 5 6 6 8 7 9 13 18 21 22 21 20 17 12 10 10 8 3 355 342 327 327 323 322 321 321 321 321 321 320 322 322 323 324 326 329
350 352 356 357 356 354 354 355 358 4 0 3 8 11 15 19 22 22 17 15 12 9 10 5 4 357 346 338 333 325 322 321 320 320 321 321 322 321 321 321 323 325 327